Regional Weather Roundup
Issued by NWS

Home | Current Version | Previous Version | Graphics & Text | Print | Product List | Glossary On
Versions: 1 2 3 4 5 6 7 8 9 10 11 12 13 14 15 16 17 18 19 20 21 22 23 24 25 26 27 28 29 30 31 32 33 34 35 36 37 38 39 40 41 42 43 44 45 46 47
000
ASUS43 KDMX 202107
RWRIA

WEATHER ROUNDUP FOR IOWA
NATIONAL WEATHER SERVICE DES MOINES IA
400 PM CDT SAT SEP 20 2014

NOTE: "FAIR" INDICATES FEW OR NO CLOUDS BELOW 12,000 FEET WITH NO
SIGNIFICANT WEATHER AND/OR OBSTRUCTIONS TO VISIBILITY.

* - THESE STATIONS ARE NOT NWS STATIONS...THUS NOT UNDER NWS
QUALITY CONTROL.  THEY ALSO DO NOT REPORT WEATHER SUCH
AS PRECIPITATION OR FOG.

IAZ001>003-012>014-020>022-031>034-043>046-202200-
   NORTHWEST IOWA

CITY           SKY/WX    TMP DP  RH WIND       PRES   REMARKS
CARROLL *      SUNNY     82  59  44 W12G28    29.89S HX  82
CHEROKEE *     SUNNY     81  55  41 W12       29.88F HX  80
DENISON *      SUNNY     81  55  41 NW14      29.89F HX  80
LE MARS *      SUNNY     82  55  39 W15G21    29.89F HX  82
ORANGE CITY *  SUNNY     82  52  34 W15       29.88F HX  81
SHELDON *      SUNNY     82  55  39 W13G24    29.86F HX  82
SIOUX CITY     SUNNY     84  54  35 NW13G22   29.89F HX  83
SPENCER        SUNNY     82  55  39 W22       29.85F HX  81
STORM LAKE *   SUNNY     81  61  50 W16G24    29.89S HX  81
$$

IAZ055>058-069>071-079>083-090>094-202200-
   SOUTHWEST IOWA

CITY           SKY/WX    TMP DP  RH WIND       PRES   REMARKS
ATLANTIC *     MOSUNNY   82  64  54 NW12G18   29.89S HX  84
AUDUBON *      SUNNY     82  54  36 NW8       29.91S HX  81
CLARINDA *     SUNNY     82  68  61 W10       29.92S HX  85
COUNCIL BLFS * SUNNY     84  63  48 NW10      29.91S HX  85
CRESTON *      MOSUNNY   81  66  61 W13G18    29.91S HX  83
HARLAN  *      SUNNY     82  61  47 W10G18    29.94S HX  83
LAMONI         SUNNY     80  68  66 W12       29.90F HX  83
RED OAK *      SUNNY     84  66  54 VRB7G16   29.91S HX  86
SHENANDOAH *   SUNNY     84  68  58 NW7G14    29.91F HX  87
$$

IAZ047>049-059>061-072>074-084-202200-
   CENTRAL IOWA

CITY           SKY/WX    TMP DP  RH WIND       PRES   REMARKS
AMES           SUNNY     84  58  40 NW14      29.85S HX  83
ANKENY *       SUNNY     82  64  54 W10G17    29.85S HX  84
CHARITON *     PTSUNNY   79  68  69 SW13G18   29.88F HX  81
DES MOINES     MOSUNNY   84  65  52 W15       29.85F HX  86
GRINNELL*      SUNNY     81  61  50 W15       29.86S HX  81
KNOXVILLE *    MOSUNNY   81  66  61 W12G18    29.85F HX  83
MARSHALLTOWN   SUNNY     82  60  47 W15       29.83S HX  82
PELLA *        SUNNY     82  66  57 W10       29.87F HX  85
PERRY *          N/A     84  55  37 NW12G18   29.87R HX  83
$$

IAZ004>006-015-016-023>025-035-036-202200-
   NORTH CENTRAL IOWA

CITY           SKY/WX    TMP DP  RH WIND       PRES   REMARKS
ALGONA *       MOSUNNY   81  55  41 W16       29.84F HX  80
CLARION *        N/A     81  55  41 NW18G24   29.84F HX  80
ESTHERVILLE    MOSUNNY   80  54  40 W14G22    29.83F HX  80
FORT DODGE *   MOSUNNY   81  57  44 W9G16     29.86F HX  81
MASON CITY     MOSUNNY   80  56  43 W17G26    29.83F HX  80
FOREST CITY *  MOSUNNY   81  54  39 W16G23    29.82F HX  80
IOWA FALLS *     N/A     82  54  36 W14G20    29.84F HX  81
$$

IAZ007>011-017>019-026>030-037>042-050>054-066-202200-
   NORTHEAST IOWA

CITY           SKY/WX    TMP DP  RH WIND       PRES   REMARKS
CEDAR RAPIDS   PTSUNNY   78  67  68 SW14      29.82F HX  80
CHARLES CITY * SUNNY     79  57  47 W16       29.82F HX  80
CLINTON *      MOSUNNY   77  66  69 W13       29.83F
DECORAH *      SUNNY     77  57  50 W10G22    29.79S
DUBUQUE        MOSUNNY   77  64  64 W14       29.80F
MONTICELLO *   MOSUNNY   79  66  65 SW16      29.81S HX  81
OELWEIN *      SUNNY     81  59  47 NW17G24   29.82S HX  81
WATERLOO       SUNNY     81  57  43 W16G23    29.80S HX  81
$$

IAZ064-065-067-068-078-202200-
   EAST CENTRAL IOWA

CITY           SKY/WX    TMP DP  RH WIND       PRES   REMARKS
DAVENPORT      MOSUNNY   78  65  63 SW15      29.83S HX  80
IOWA CITY      MOSUNNY   78  67  68 SW10G18   29.84S HX  80
MT. PLEASANT * CLOUDY    79  64  61 SW12G20   29.86S HX  81
MUSCATINE *    PTSUNNY   81  66  61 W12       29.83F HX  83
QUAD CITIES    PTSUNNY   79  68  69 W9        29.82F HX  81
$$

IAZ062-063-075>077-085>089-095>099-202200-
   SOUTHEAST IOWA

CITY           SKY/WX    TMP DP  RH WIND       PRES   REMARKS
BURLINGTON     CLOUDY    79  68  69 SW14G22   29.87F HX  81
FAIRFIELD *    MOSUNNY   81  66  61 SW12G23   29.85F HX  83
FORT MADISON * MOSUNNY   81  70  69 SW12      29.89F HX  84
KEOKUK *       SUNNY     79  70  73 SW12      29.88F HX  81
OSKALOOSA *      N/A     79  68  69 SW12G17   29.86F HX  81
CENTERVILLE *  MOSUNNY   81  70  69 SW9       29.91F HX  84
OTTUMWA        MOSUNNY   81  67  62 SW12G20   29.86S HX  83
WASHINGTON *   MOSUNNY   81  68  65 SW15G22   29.85F HX  83
$$

ABBREVIATIONS USED IN REMARKS
   TC - TEMPERATURES IN CELSIUS
  WCI - WIND CHILL INDEX
   HX - HEAT INDEX
  VSB - VISIBILITY
$$



USA.gov is the U.S. government's official web portal to all federal, state and local government web resources and services.